DELTA 1 DEB, 7184

Orbit data source: Space-Track

DELTA 1 DEB, 7184 is space debris in SSO originally from a launch on Tue, 06 Nov 1973 UTC launched from the Air Force Western Test Range (AFWTR). Debris objects in space refer to the collection of defunct objects orbiting the Earth. Examples of debris include non-operational satellites, rocket bodies, and fragments generated from explosions, collisions, or faulty payload assembly.

Loading next visibility...
Identifier
7184, 1973-086EV
Orbit
SSO
Country
Flag of USUS
Related business
Manufacturer
Unknown
Mission
Spacecraft
Bus & Motor
Unknown
Mass
Unknown
Launch date (UTC)
1973-11-06 (52 years ago)
Launch vehicle
Unknown
Launch site
Air Force Western Test Range (AFWTR)
Object type
Payload
Rocket body
Debris
Shape & HBR
Unknown shape, 0.1 m
Radar Cross Section
Small (<0.1 m²)

Expand to show TLE details & history
Last TLE update: 16 hours ago

TLE from 16 hours ago
0 DELTA 1 DEB
1  7184U 73086EV  26122.43451035  .00001197  00000-0  35576-2 0  9998
2  7184 102.2982  97.9471 0187079 292.8794 220.3756 13.05143084477367
Epoch: 2026-05-02T10:25Z
TLE epoch observation values (Epoch: 2026-05-02T10:25:41.694Z)
Latitude
27.44879°
Longitude
-92.35949°
Altitude
1,354.822 km
Speed
7.131 km/s
True Right ascension
18h 57m 40s
True Declination
27° 19' 09"
Sunlit
Object was in daylight at epoch
Visualization orbit readout
Latitude
Unknown
Longitude
Unknown
Altitude
Unknown
Speed
Unknown
Apparent Right ascension
Unknown
Apparent Declination
Unknown
Sunlit
N/A
Visualization observer readout
Local Sidereal Time
10:22:42
Azimuth
Unknown
Elevation
Unknown
Doppler factor
Unknown
Orbital elements
Apogee altitude
1,382.023 km
Perigee altitude
1,097.003 km
Semi-major axis
7,617.65 km
Eccentricity
0.01871
Inclination
102.2982°
RAAN
97.9471°
Arg. of periapsis
292.8794°
True anomaly
219.01133°
Mean anomaly
220.3756°
Eccentric anomaly
219.69104°
Mean motion
3.26446 °/min
Orbital period
110.28 mins
BSTAR
0.0035576
Loading maneuver chart data...
Computing Atmospheric mass density...
Loading historical data...
Loading historical data...
Loading historical data...
Loading historical data...
Loading historical data...
Loading historical data...
Loading historical data...

Documentation

Showing up to 5 results
|